#timestamp,LO_Frequency,Hit,StdDev 
1522868415.0,286046998.9,N
1522868415.9,286046998.9,N
1522868435.8,286046997.1,N
1522868455.6,286046999.3,N
1522868475.4,286046998.8,N
1522868495.3,286046997.0,N
1522868515.1,286046999.3,N
1522868535.8,286046997.5,N
1522868555.7,286046994.9,Y
1522868575.5,286046999.0,P
1522868595.4,286046999.2,P
1522868615.2,286046997.0,P
1522868635.0,286046996.5,Y
1522868635.9,286046996.5,P
1522868655.8,286046998.4,N
1522868675.6,286046999.0,N
1522868695.5,286046999.5,N
1522868715.3,286046999.1,N
1522868735.1,286046999.2,N
1522868755.9,286046996.7,Y
1522868775.7,286047000.3,P
1522868795.6,286047001.9,N
1522868815.4,286047004.3,P
1522868835.2,286047001.7,N
1522868855.1,286047003.2,N
1522868856.0,286047003.2,N
1522868875.8,286047003.0,N
1522868895.7,286047003.6,N
1522868915.5,286047005.6,Y
1522868935.3,286047002.3,P
1522868955.2,286047002.1,P
1522868975.0,286047001.9,P
1522868975.9,286047001.9,Y
1522868995.8,286047001.1,P
1522869015.6,286047000.8,N
1522869035.4,286046998.2,P
1522869055.3,286046996.5,N
1522869075.1,286046997.0,N
1522869076.0,286046997.0,N
1522869095.8,286046997.8,N
1522869115.7,286046997.7,N
1522869135.5,286046995.3,N
1522869155.3,286046995.6,N
1522869175.2,286046996.3,N
1522869195.0,286046995.1,N
1522869195.9,286046995.1,N
1522869215.8,286047011.9,Y
1522869235.6,286046996.6,P
1522869255.4,286047001.1,N
1522869275.3,286047000.3,N
1522869295.1,286046998.2,N
1522869315.8,286046999.3,N
1522869335.7,286046998.3,N
1522869355.5,286046999.4,N
1522869375.4,286047001.0,N
1522869395.2,286046996.9,N
1522869415.0,286046999.3,N
1522869415.9,286046999.3,N
1522869435.8,286047000.6,N
1522869455.6,286047002.5,N
1522869475.4,286047001.9,N
1522869495.3,286047003.7,N
1522869515.1,286047001.8,N
1522869535.9,286047002.3,N
1522869555.7,286046999.8,N
1522869575.5,286047002.1,N
1522869595.4,286047001.8,N
1522869615.2,286046999.8,N
1522869635.0,286047001.0,N
1522869635.9,286047001.0,N
1522869655.8,286047000.4,N
1522869675.6,286047001.5,N
1522869695.5,286047001.6,N
1522869715.3,286047002.6,N
1522869735.1,286047002.5,N
1522869755.9,286047001.4,N
1522869775.7,286047000.1,N
1522869795.5,286047004.3,N
1522869815.4,286047001.6,N
1522869835.2,286047001.8,N
1522869855.0,286047002.1,N
1522869856.0,286047002.1,N
1522869875.8,286047002.5,N
1522869895.6,286047004.2,N
1522869915.5,286047001.6,N
1522869935.3,286046999.9,N
1522869955.1,286047002.5,N
1522869975.9,286047000.6,N
1522869995.7,286047002.4,N
1522870015.5,286047001.1,N
1522870035.4,286046999.9,N
1522870055.2,286047000.2,N
1522870075.1,286046999.7,N
1522870076.0,286046999.7,N
1522870095.8,286047002.0,N
1522870115.6,286047011.9,Y
1522870135.5,286047001.2,P
1522870155.3,286046999.8,N
1522870175.1,286047000.5,N
1522870195.9,286046999.3,N
1522870215.7,286046998.7,N
1522870235.6,286046999.4,N
1522870255.4,286046998.8,N
1522870275.2,286046999.8,N
1522870295.1,286047003.8,Y
1522870296.0,286047003.8,P
1522870315.8,286047005.9,N
1522870335.6,286047003.8,N
1522870355.5,286047004.3,N
1522870375.3,286047002.0,N
1522870395.2,286047001.8,N
1522870415.9,286046999.8,N
1522870435.7,286046998.6,N
1522870455.6,286046998.7,N
1522870475.4,286047000.7,N
1522870495.2,286047000.0,N
1522870515.1,286047002.7,N
1522870516.0,286047002.7,N
1522870535.8,286047000.1,N
1522870555.7,286046998.5,N
1522870575.5,286047001.1,N
1522870595.3,286047002.4,N
1522870615.2,286046999.9,N
1522870635.9,286047001.9,N
1522870655.7,286047003.9,N
1522870675.6,286047002.6,N
1522870695.4,286046999.8,N
1522870715.2,286047000.3,N
1522870735.1,286047002.6,N
1522870736.0,286047002.6,N
1522870755.8,286046999.8,N
1522870775.7,286047001.1,N
1522870795.5,286047000.0,N
1522870815.3,286047000.2,N
1522870835.2,286047001.8,N
1522870855.0,286047002.6,N
1522870855.9,286047002.6,N
1522870875.7,286047002.3,N
1522870895.6,286047004.1,N
1522870915.4,286047003.9,N
1522870935.3,286047003.7,N
1522870955.1,286047002.6,N
1522870956.0,286047002.6,N
1522870975.8,286047002.3,N
1522870995.7,286047001.9,N
1522871015.5,286047003.5,N
1522871035.3,286047003.3,N
1522871055.2,286047004.2,N
1522871075.0,286047004.3,N
1522871075.9,286047004.3,N
1522871095.8,286047003.2,N
1522871115.6,286047005.1,Y
1522871135.4,286047001.5,P
1522871155.3,286046999.7,N
1522871175.1,286047000.0,N
1522871195.8,286047001.7,N
1522871215.7,286047004.9,Y
1522871235.5,286047005.4,P
1522871255.4,286047007.1,P
1522871275.2,286047004.7,N
1522871295.0,286047005.5,N
1522871295.9,286047005.5,N
1522871315.8,286047003.8,N
1522871335.6,286047002.9,N
1522871355.4,286047005.3,Y
1522871375.3,286047002.8,P
1522871395.1,286047002.3,N
1522871415.9,286046998.1,N
1522871435.7,286047000.4,N
1522871455.5,286046998.2,N
1522871475.4,286046999.0,N
1522871495.2,286047001.0,N
1522871515.0,286047002.5,N
1522871515.9,286047002.5,N
1522871535.8,286047002.7,N
1522871555.6,286047002.1,N
1522871575.5,286047001.3,N
1522871595.3,286047003.6,N
1522871615.1,286047004.7,N
1522871635.9,286047007.3,Y
1522871655.7,286047005.3,P
1522871675.5,286047005.8,P
1522871695.4,286047005.1,N
1522871715.2,286047005.7,Y
1522871735.1,286046998.5,P
1522871736.0,286046998.5,N
1522871755.8,286046999.1,N
1522871775.6,286046995.3,N
1522871795.5,286046997.8,N
1522871815.3,286046993.5,N
1522871835.2,286046992.0,N
1522871855.9,286046994.3,N
1522871875.7,286046991.8,N
1522871895.6,286046992.3,N
1522871915.4,286046994.0,N
1522871935.2,286046995.2,N
1522871955.1,286046997.8,N
1522871956.0,286046997.8,N
1522871975.8,286046999.1,N
1522871995.7,286046999.1,N
